Retour au catalogue

ONEWEB-0657

ActifCommunicationsPO
NORAD 55818·PAYLOAD·🇬🇧 United Kingdom

Lancé Mar 9, 2023 depuis Cape Canaveral Space Force Station

Loading…

Prochains Passages (prochaines 24 heures)

TLE

FraisSource: CelesTrak SupGP

Époque: Sep 14, 2026, 20:19 UTC

1 55818C 23029Y   26257.84706435  .00001315  00000+0  32880-2 0  2571
2 55818  87.9109 287.1116 0001780 117.1973 276.1102 13.19724323    19

Suivez ONEWEB-0657 en temps réel avec AllMySat

Download on the App Store